Date,MW,Mvar
01/01/2018 00:15,9.47,3.47
01/01/2018 00:30,9.93,3.51
01/01/2018 00:45,10.14,3.64
01/01/2018 01:00,9.98,3.56
01/01/2018 01:15,9.73,3.45
01/01/2018 01:30,9.58,3.38
01/01/2018 01:45,9.48,3.46
01/01/2018 02:00,9.37,3.34
01/01/2018 02:15,9.29,3.43
01/01/2018 02:30,9.16,3.38
01/01/2018 02:45,9.12,3.36
01/01/2018 03:00,9.02,3.35
01/01/2018 03:15,9.01,3.43
01/01/2018 03:30,8.86,3.37
01/01/2018 03:45,8.82,3.37
01/01/2018 04:00,8.55,3.24
01/01/2018 04:15,8.51,3.28
01/01/2018 04:30,8.54,3.34
01/01/2018 04:45,8.5,3.36
01/01/2018 05:00,8.4,3.39
01/01/2018 05:15,8.49,3.46
01/01/2018 05:30,8.59,3.57
01/01/2018 05:45,8.88,3.79
01/01/2018 06:00,9.13,4.03
01/01/2018 06:15,9.39,4.26
01/01/2018 06:30,9.68,4.45
01/01/2018 06:45,9.84,4.62
01/01/2018 07:00,9.99,4.62
01/01/2018 07:15,9.65,4.47
01/01/2018 07:30,9.57,4.33
01/01/2018 07:45,9.4,4.23
01/01/2018 08:00,9.16,3.97
01/01/2018 08:15,8.48,3.71
01/01/2018 08:30,8.49,3.57
01/01/2018 08:45,8.28,3.48
01/01/2018 09:00,8.12,3.32
01/01/2018 09:15,8.03,3.28
01/01/2018 09:30,8,3.2
01/01/2018 09:45,7.83,3.09
01/01/2018 10:00,7.89,3.08
01/01/2018 10:15,7.53,2.99
01/01/2018 10:30,7.28,2.9
01/01/2018 10:45,6.7,2.68
01/01/2018 11:00,6.48,2.45
01/01/2018 11:15,6.35,2.39
01/01/2018 11:30,6.25,2.33
01/01/2018 11:45,6.05,2.26
01/01/2018 12:00,6.13,2.24
01/01/2018 12:15,6.16,2.26
01/01/2018 12:30,6.19,2.32
01/01/2018 12:45,6.18,2.36
01/01/2018 13:00,6.12,2.32
01/01/2018 13:15,6.18,2.42
01/01/2018 13:30,6.25,2.43
01/01/2018 13:45,6.38,2.43
01/01/2018 14:00,6.28,2.4
01/01/2018 14:15,5.75,2.31
01/01/2018 14:30,5.89,2.4
01/01/2018 14:45,5.98,2.44
01/01/2018 15:00,5.93,2.42
01/01/2018 15:15,6.16,2.54
01/01/2018 15:30,6.19,2.69
01/01/2018 15:45,6.23,2.76
01/01/2018 16:00,6.5,2.95
01/01/2018 16:15,6.72,3.09
01/01/2018 16:30,6.93,3.24
01/01/2018 16:45,7.15,3.46
01/01/2018 17:00,7.28,3.61
01/01/2018 17:15,7.41,3.64
01/01/2018 17:30,7.46,3.58
01/01/2018 17:45,7.37,3.54
01/01/2018 18:00,7.25,3.4
01/01/2018 18:15,7.05,3.29
01/01/2018 18:30,6.87,3.06
01/01/2018 18:45,6.8,2.95
01/01/2018 19:00,6.57,2.83
01/01/2018 19:15,6.34,2.65
01/01/2018 19:30,6.31,2.57
01/01/2018 19:45,6.26,2.52
01/01/2018 20:00,6.12,2.47
01/01/2018 20:15,5.98,2.36
01/01/2018 20:30,5.91,2.33
01/01/2018 20:45,5.98,2.34
01/01/2018 21:00,5.84,2.27
01/01/2018 21:15,5.78,2.27
01/01/2018 21:30,5.74,2.28
01/01/2018 21:45,5.74,2.26
01/01/2018 22:00,5.78,2.22
01/01/2018 22:15,5.84,2.21
01/01/2018 22:30,5.84,2.15
01/01/2018 22:45,5.94,2.2
01/01/2018 23:00,6.4,2.36
01/01/2018 23:15,7.17,2.78
01/01/2018 23:30,7.69,3.02
01/01/2018 23:45,8.08,3.13
02/01/2018 00:00,8.62,3.25
02/01/2018 00:15,9.41,3.42
02/01/2018 00:30,10.33,3.68
02/01/2018 00:45,10.33,3.61
02/01/2018 01:00,10.4,3.71
02/01/2018 01:15,10.3,3.73
02/01/2018 01:30,10.1,3.59
02/01/2018 01:45,10.03,3.63
02/01/2018 02:00,9.77,3.53
02/01/2018 02:15,9.78,3.58
02/01/2018 02:30,9.75,3.63
02/01/2018 02:45,9.72,3.62
02/01/2018 03:00,9.59,3.58
02/01/2018 03:15,9.43,3.55
02/01/2018 03:30,9.42,3.54
02/01/2018 03:45,9.51,3.64
02/01/2018 04:00,9.57,3.7
02/01/2018 04:15,9.44,3.81
02/01/2018 04:30,9.5,3.92
02/01/2018 04:45,9.43,3.9
02/01/2018 05:00,9.39,3.93
02/01/2018 05:15,9.56,4.11
02/01/2018 05:30,9.61,4.19
02/01/2018 05:45,9.73,4.31
02/01/2018 06:00,9.91,4.59
02/01/2018 06:15,10.01,4.67
02/01/2018 06:30,10.3,4.86
02/01/2018 06:45,10.58,5.28
02/01/2018 07:00,10.76,5.46
02/01/2018 07:15,10.4,5.22
02/01/2018 07:30,10.19,4.98
02/01/2018 07:45,10.3,4.92
02/01/2018 08:00,10.33,4.83
02/01/2018 08:15,9.67,4.57
02/01/2018 08:30,9.59,4.54
02/01/2018 08:45,9.59,4.48
02/01/2018 09:00,9.38,4.35
02/01/2018 09:15,9.19,4.27
02/01/2018 09:30,9.05,4.22
02/01/2018 09:45,9.2,4.32
02/01/2018 10:00,9.19,4.29
02/01/2018 10:15,9.12,4.25
02/01/2018 10:30,9.08,4.37
02/01/2018 10:45,8.82,4.33
02/01/2018 11:00,7.87,3.79
02/01/2018 11:15,7.55,3.45
02/01/2018 11:30,7.52,3.44
02/01/2018 11:45,7.75,3.71
02/01/2018 12:00,7.53,3.65
02/01/2018 12:15,7.52,3.65
02/01/2018 12:30,7.35,3.62
02/01/2018 12:45,7.46,3.65
02/01/2018 13:00,7.63,3.76
02/01/2018 13:15,7.7,3.8
02/01/2018 13:30,7.2,3.64
02/01/2018 13:45,7.09,3.59
02/01/2018 14:00,6.98,3.56
02/01/2018 14:15,6.99,3.56
02/01/2018 14:30,6.98,3.52
02/01/2018 14:45,7.12,3.66
02/01/2018 15:00,7.18,3.7
02/01/2018 15:15,7.28,3.74
02/01/2018 15:30,7.19,3.65
02/01/2018 15:45,7.12,3.65
02/01/2018 16:00,7.21,3.7
02/01/2018 16:15,7.83,4.17
02/01/2018 16:30,8.22,4.32
02/01/2018 16:45,8.28,4.4
02/01/2018 17:00,8.44,4.57
02/01/2018 17:15,8.63,4.65
02/01/2018 17:30,8.74,4.73
02/01/2018 17:45,8.87,4.83
02/01/2018 18:00,8.6,4.64
02/01/2018 18:15,8.35,4.44
02/01/2018 18:30,8.21,4.26
02/01/2018 18:45,8.17,4.25
02/01/2018 19:00,7.77,3.94
02/01/2018 19:15,7.45,3.52
02/01/2018 19:30,7.31,3.51
02/01/2018 19:45,7.22,3.27
02/01/2018 20:00,6.84,3.04
02/01/2018 20:15,6.8,3
02/01/2018 20:30,6.88,3.17
02/01/2018 20:45,6.75,3.14
02/01/2018 21:00,7.09,3.35
02/01/2018 21:15,7.19,3.41
02/01/2018 21:30,7.25,3.44
02/01/2018 21:45,7.22,3.42
02/01/2018 22:00,7.26,3.41
02/01/2018 22:15,7.25,3.39
02/01/2018 22:30,7.38,3.43
02/01/2018 22:45,7.92,3.56
02/01/2018 23:00,8.23,3.79
02/01/2018 23:15,8.83,3.98
02/01/2018 23:30,9.53,4.18
02/01/2018 23:45,9.92,4.34
03/01/2018 00:00,10.3,4.49
03/01/2018 00:15,10.78,4.52
03/01/2018 00:30,11.52,4.64
03/01/2018 00:45,11.49,4.49
03/01/2018 01:00,11.43,4.46
03/01/2018 01:15,11.15,4.3
03/01/2018 01:30,10.89,4.18
03/01/2018 01:45,10.72,4.14
03/01/2018 02:00,10.37,4.04
03/01/2018 02:15,10.29,4.06
03/01/2018 02:30,10.29,4.07
03/01/2018 02:45,10.25,4.11
03/01/2018 03:00,10.15,4.06
03/01/2018 03:15,10.13,4.02
03/01/2018 03:30,10.04,4.13
03/01/2018 03:45,10.04,4.18
03/01/2018 04:00,10.12,4.3
03/01/2018 04:15,10.05,4.32
03/01/2018 04:30,9.93,4.39
03/01/2018 04:45,10.08,4.81
03/01/2018 05:00,10.39,4.96
03/01/2018 05:15,10.61,5.15
03/01/2018 05:30,10.65,5.18
03/01/2018 05:45,10.75,5.28
03/01/2018 06:00,10.76,5.36
03/01/2018 06:15,10.82,5.51
03/01/2018 06:30,11.29,5.87
03/01/2018 06:45,11.29,6.01
03/01/2018 07:00,11.57,6.07
03/01/2018 07:15,11.22,5.84
03/01/2018 07:30,11.02,5.73
03/01/2018 07:45,11.12,5.75
03/01/2018 08:00,10.95,5.57
03/01/2018 08:15,10.1,5.03
03/01/2018 08:30,9.86,4.92
03/01/2018 08:45,9.71,4.85
03/01/2018 09:00,9.6,4.74
03/01/2018 09:15,10.09,4.97
03/01/2018 09:30,10.18,5.04
03/01/2018 09:45,10.14,5.03
03/01/2018 10:00,10.36,5.13
03/01/2018 10:15,10.11,4.99
03/01/2018 10:30,9.82,4.7
03/01/2018 10:45,9.72,4.56
03/01/2018 11:00,9.64,4.7
03/01/2018 11:15,9.86,4.84
03/01/2018 11:30,9.58,4.82
03/01/2018 11:45,9.29,4.75
03/01/2018 12:00,9.05,4.69
03/01/2018 12:15,9.03,4.74
03/01/2018 12:30,9.05,4.67
03/01/2018 12:45,8.71,4.41
03/01/2018 13:00,8.84,4.48
03/01/2018 13:15,8.96,4.58
03/01/2018 13:30,8.57,4.33
03/01/2018 13:45,8.41,4.13
03/01/2018 14:00,8.61,4.25
03/01/2018 14:15,8.73,4.53
03/01/2018 14:30,8.89,4.57
03/01/2018 14:45,8.96,4.65
03/01/2018 15:00,8.74,4.4
03/01/2018 15:15,8.87,4.47
03/01/2018 15:30,9.01,4.57
03/01/2018 15:45,8.63,4.48
03/01/2018 16:00,8.9,4.82
03/01/2018 16:15,9.25,5.05
03/01/2018 16:30,9.22,5.02
03/01/2018 16:45,9.37,5.22
03/01/2018 17:00,9.46,5.4
03/01/2018 17:15,9.38,5.33
03/01/2018 17:30,9.42,5.31
03/01/2018 17:45,9.3,5.3
03/01/2018 18:00,9.22,5.22
03/01/2018 18:15,9.44,5.36
03/01/2018 18:30,9.35,5.18
03/01/2018 18:45,8.96,4.88
03/01/2018 19:00,8.47,4.47
03/01/2018 19:15,8.03,4.06
03/01/2018 19:30,8.05,4.11
03/01/2018 19:45,8.07,4.09
03/01/2018 20:00,8.06,4.03
03/01/2018 20:15,8.02,4.02
03/01/2018 20:30,8,3.99
03/01/2018 20:45,8.08,3.98
03/01/2018 21:00,8.11,3.99
03/01/2018 21:15,8.03,3.95
03/01/2018 21:30,8.13,3.99
03/01/2018 21:45,8.02,3.97
03/01/2018 22:00,7.77,3.68
03/01/2018 22:15,7.73,3.54
03/01/2018 22:30,7.87,3.61
03/01/2018 22:45,8.07,3.8
03/01/2018 23:00,8.16,3.8
03/01/2018 23:15,8.36,3.76
03/01/2018 23:30,8.53,3.78
03/01/2018 23:45,8.54,3.74
04/01/2018 00:00,8.44,3.53
04/01/2018 00:15,9.01,3.54
04/01/2018 00:30,9.7,3.72
04/01/2018 00:45,9.75,3.7
04/01/2018 01:00,9.5,3.65
04/01/2018 01:15,9.32,3.62
04/01/2018 01:30,9.16,3.52
04/01/2018 01:45,9.04,3.53
04/01/2018 02:00,8.9,3.5
04/01/2018 02:15,8.69,3.41
04/01/2018 02:30,8.56,3.4
04/01/2018 02:45,8.55,3.44
04/01/2018 03:00,8.53,3.44
04/01/2018 03:15,8.6,3.56
04/01/2018 03:30,8.85,3.97
04/01/2018 03:45,8.69,4.03
04/01/2018 04:00,8.9,4.24
04/01/2018 04:15,8.79,4.27
04/01/2018 04:30,8.44,4.1
04/01/2018 04:45,8.43,4.2
04/01/2018 05:00,8.34,4.35
04/01/2018 05:15,8.17,4.22
04/01/2018 05:30,8.43,4.41
04/01/2018 05:45,8.57,4.62
04/01/2018 06:00,8.79,4.8
04/01/2018 06:15,8.79,4.78
04/01/2018 06:30,9.15,5.3
04/01/2018 06:45,9.15,5.29
04/01/2018 07:00,9.19,5.24
04/01/2018 07:15,8.8,5.1
04/01/2018 07:30,8.83,4.91
04/01/2018 07:45,8.81,4.83
04/01/2018 08:00,8.88,4.81
04/01/2018 08:15,8.48,4.67
04/01/2018 08:30,8.19,4.47
04/01/2018 08:45,7.84,4.23
04/01/2018 09:00,7.72,3.96
04/01/2018 09:15,7.53,3.83
04/01/2018 09:30,7.51,3.97
04/01/2018 09:45,7.6,3.97
04/01/2018 10:00,7.51,3.93
04/01/2018 10:15,7.46,3.91
04/01/2018 10:30,7.41,3.89
04/01/2018 10:45,7.3,3.86
04/01/2018 11:00,7.06,3.72
04/01/2018 11:15,7.09,3.66
04/01/2018 11:30,6.92,3.57
04/01/2018 11:45,7.15,3.7
04/01/2018 12:00,7.25,3.72
04/01/2018 12:15,7.23,3.73
04/01/2018 12:30,7.09,3.7
04/01/2018 12:45,7.13,3.72
04/01/2018 13:00,7.02,3.69
04/01/2018 13:15,6.96,3.67
04/01/2018 13:30,6.86,3.55
04/01/2018 13:45,6.75,3.39
04/01/2018 14:00,6.89,3.55
04/01/2018 14:15,6.71,3.52
04/01/2018 14:30,6.65,3.51
04/01/2018 14:45,6.97,3.78
04/01/2018 15:00,7.46,4.09
04/01/2018 15:15,7.81,4.3
04/01/2018 15:30,7.96,4.38
04/01/2018 15:45,7.91,4.31
04/01/2018 16:00,8.19,4.47
04/01/2018 16:15,8.54,4.68
04/01/2018 16:30,8.84,4.95
04/01/2018 16:45,9.04,5.08
04/01/2018 17:00,9.36,5.4
04/01/2018 17:15,9.35,5.34
04/01/2018 17:30,9.6,5.43
04/01/2018 17:45,9.73,5.49
04/01/2018 18:00,9.6,5.38
04/01/2018 18:15,9.55,5.4
04/01/2018 18:30,9.18,5.13
04/01/2018 18:45,8.85,4.64
04/01/2018 19:00,8.66,4.37
04/01/2018 19:15,8.85,4.51
04/01/2018 19:30,9.08,4.64
04/01/2018 19:45,9.1,4.43
04/01/2018 20:00,9.19,4.33
04/01/2018 20:15,9.12,4.33
04/01/2018 20:30,9.04,4.25
04/01/2018 20:45,9.05,4.21
04/01/2018 21:00,8.86,4
04/01/2018 21:15,8.76,3.94
04/01/2018 21:30,8.87,3.98
04/01/2018 21:45,8.86,4.01
04/01/2018 22:00,8.99,4.11
04/01/2018 22:15,9.05,4.1
04/01/2018 22:30,9.18,4.08
04/01/2018 22:45,9.54,4.32
04/01/2018 23:00,10.22,4.73
04/01/2018 23:15,10.25,4.67
04/01/2018 23:30,10.2,4.49
04/01/2018 23:45,10.44,4.59
05/01/2018 00:00,10.79,4.78
05/01/2018 00:15,11.41,4.89
05/01/2018 00:30,12.02,5.11
05/01/2018 00:45,12.01,4.95
05/01/2018 01:00,11.91,4.96
05/01/2018 01:15,11.79,4.97
05/01/2018 01:30,11.59,4.89
05/01/2018 01:45,11.43,4.85
05/01/2018 02:00,11.28,4.85
05/01/2018 02:15,10.92,4.74
05/01/2018 02:30,11.07,4.82
05/01/2018 02:45,10.98,4.68
05/01/2018 03:00,10.92,4.74
05/01/2018 03:15,10.94,4.89
05/01/2018 03:30,10.8,4.86
05/01/2018 03:45,10.7,4.82
05/01/2018 04:00,10.66,4.74
05/01/2018 04:15,10.79,5
05/01/2018 04:30,10.84,5.1
05/01/2018 04:45,10.75,5.13
05/01/2018 05:00,10.58,4.9
05/01/2018 05:15,10.89,5.27
05/01/2018 05:30,11.17,5.58
05/01/2018 05:45,11.11,5.53
05/01/2018 06:00,11.07,5.54
05/01/2018 06:15,11.24,5.82
05/01/2018 06:30,11.51,6.06
05/01/2018 06:45,11.68,6.17
05/01/2018 07:00,11.73,6.16
05/01/2018 07:15,12.05,6.61
05/01/2018 07:30,12.24,6.67
05/01/2018 07:45,11.91,6.52
05/01/2018 08:00,11.82,6.11
05/01/2018 08:15,11.2,5.98
05/01/2018 08:30,11.25,6.06
05/01/2018 08:45,10.86,5.74
05/01/2018 09:00,10.8,5.7
05/01/2018 09:15,10.68,5.63
05/01/2018 09:30,10.23,5.2
05/01/2018 09:45,10.33,5.15
05/01/2018 10:00,10.45,5.29
05/01/2018 10:15,10.47,5.25
05/01/2018 10:30,10.2,5.2
05/01/2018 10:45,10.21,5.17
05/01/2018 11:00,10.21,5.18
05/01/2018 11:15,10.02,5.08
05/01/2018 11:30,10.03,4.98
05/01/2018 11:45,10.09,5.01
05/01/2018 12:00,10.12,5.09
05/01/2018 12:15,10.28,5.25
05/01/2018 12:30,10.19,5.28
05/01/2018 12:45,10.39,5.38
05/01/2018 13:00,10.52,5.46
05/01/2018 13:15,10.09,5.21
05/01/2018 13:30,10.04,5.15
05/01/2018 13:45,10.16,5.17
05/01/2018 14:00,10.24,5.24
05/01/2018 14:15,10.24,5.23
05/01/2018 14:30,10.3,5.18
05/01/2018 14:45,10.07,4.95
05/01/2018 15:00,9.92,4.98
05/01/2018 15:15,10.29,5.13
05/01/2018 15:30,10.62,5.53
05/01/2018 15:45,11.01,5.84
05/01/2018 16:00,10.74,5.74
05/01/2018 16:15,10.52,5.68
05/01/2018 16:30,10.02,5.46
05/01/2018 16:45,10.39,5.74
05/01/2018 17:00,10.58,5.74
05/01/2018 17:15,10.49,5.75
05/01/2018 17:30,10.7,5.71
05/01/2018 17:45,10.61,5.62
05/01/2018 18:00,10.54,5.59
05/01/2018 18:15,10.1,5.42
05/01/2018 18:30,10.28,5.56
05/01/2018 18:45,10.35,5.6
05/01/2018 19:00,10.15,5.42
05/01/2018 19:15,9.31,4.88
05/01/2018 19:30,9.01,4.77
05/01/2018 19:45,8.99,4.74
05/01/2018 20:00,8.66,4.47
05/01/2018 20:15,8.2,4.01
05/01/2018 20:30,8.09,3.91
05/01/2018 20:45,8.1,3.84
05/01/2018 21:00,8.16,3.87
05/01/2018 21:15,8.65,4.14
05/01/2018 21:30,9.6,4.44
05/01/2018 21:45,9.77,4.44
05/01/2018 22:00,9.65,4.36
05/01/2018 22:15,9.91,4.43
05/01/2018 22:30,10.04,4.46
05/01/2018 22:45,10.03,4.38
05/01/2018 23:00,10.12,4.49
05/01/2018 23:15,10.2,4.45
05/01/2018 23:30,10.4,4.39
05/01/2018 23:45,10.67,4.47
06/01/2018 00:00,10.75,4.61
06/01/2018 00:15,11.33,4.69
06/01/2018 00:30,11.84,4.8
06/01/2018 00:45,11.93,4.74
06/01/2018 01:00,11.68,4.75
06/01/2018 01:15,11.42,4.64
06/01/2018 01:30,11.3,4.61
06/01/2018 01:45,11.19,4.6
06/01/2018 02:00,11.05,4.59
06/01/2018 02:15,10.8,4.46
06/01/2018 02:30,10.63,4.4
06/01/2018 02:45,10.67,4.37
06/01/2018 03:00,10.58,4.42
06/01/2018 03:15,10.63,4.46
06/01/2018 03:30,10.51,4.57
06/01/2018 03:45,10.34,4.47
06/01/2018 04:00,10.38,4.49
06/01/2018 04:15,10.25,4.53
06/01/2018 04:30,10.45,4.76
06/01/2018 04:45,10.35,4.79
06/01/2018 05:00,10.36,4.9
06/01/2018 05:15,10.48,4.94
06/01/2018 05:30,10.65,5.12
06/01/2018 05:45,10.85,5.33
06/01/2018 06:00,11.07,5.6
06/01/2018 06:15,11.31,5.77
06/01/2018 06:30,11.28,5.83
06/01/2018 06:45,11.54,6.05
06/01/2018 07:00,11.63,6.08
06/01/2018 07:15,11.82,6.35
06/01/2018 07:30,12,6.18
06/01/2018 07:45,12.2,6.24
06/01/2018 08:00,11.78,5.97
06/01/2018 08:15,11.41,5.82
06/01/2018 08:30,11.21,5.81
06/01/2018 08:45,10.92,5.48
06/01/2018 09:00,10.42,5.33
06/01/2018 09:15,9.94,4.97
06/01/2018 09:30,9.48,4.55
06/01/2018 09:45,9.16,4.36
06/01/2018 10:00,9.36,4.39
06/01/2018 10:15,9.49,4.4
06/01/2018 10:30,9.32,4.31
06/01/2018 10:45,9.05,4.17
06/01/2018 11:00,9.05,4.03
06/01/2018 11:15,9,4.02
06/01/2018 11:30,8.97,3.97
06/01/2018 11:45,9.11,4
06/01/2018 12:00,9.22,4.04
06/01/2018 12:15,8.86,3.97
06/01/2018 12:30,8.88,3.99
06/01/2018 12:45,8.86,3.92
06/01/2018 13:00,8.86,3.93
06/01/2018 13:15,8.77,3.93
06/01/2018 13:30,8.6,3.84
06/01/2018 13:45,8.54,3.79
06/01/2018 14:00,8.61,3.87
06/01/2018 14:15,8.85,3.96
06/01/2018 14:30,8.96,4.05
06/01/2018 14:45,8.95,4.03
06/01/2018 15:00,8.78,3.99
06/01/2018 15:15,8.87,4.09
06/01/2018 15:30,9.07,4.22
06/01/2018 15:45,9.44,4.44
06/01/2018 16:00,9.61,4.47
06/01/2018 16:15,9.7,4.62
06/01/2018 16:30,9.86,4.69
06/01/2018 16:45,10.29,4.98
06/01/2018 17:00,10.63,5.16
06/01/2018 17:15,10.73,5.17
06/01/2018 17:30,10.98,5.3
06/01/2018 17:45,10.92,5.3
06/01/2018 18:00,10.9,5.34
06/01/2018 18:15,10.94,5.27
06/01/2018 18:30,10.83,5.08
06/01/2018 18:45,10.77,5.12
06/01/2018 19:00,10.75,5.13
06/01/2018 19:15,10.32,4.73
06/01/2018 19:30,10.26,4.63
06/01/2018 19:45,10.28,4.66
06/01/2018 20:00,9.97,4.6
06/01/2018 20:15,9.76,4.39
06/01/2018 20:30,9.59,4.33
06/01/2018 20:45,9.58,4.3
06/01/2018 21:00,9.62,4.27
06/01/2018 21:15,9.65,4.35
06/01/2018 21:30,9.65,4.25
06/01/2018 21:45,9.64,4.25
06/01/2018 22:00,9.55,4.28
06/01/2018 22:15,9.54,4.15
06/01/2018 22:30,9.64,4.28
06/01/2018 22:45,9.62,4.28
06/01/2018 23:00,9.65,4.27
06/01/2018 23:15,9.74,4.24
06/01/2018 23:30,9.83,4.22
06/01/2018 23:45,9.98,4.26
07/01/2018 00:00,10.14,4.34
07/01/2018 00:15,10.47,4.37
07/01/2018 00:30,10.97,4.4
07/01/2018 00:45,11.15,4.58
07/01/2018 01:00,10.88,4.43
07/01/2018 01:15,10.74,4.5
07/01/2018 01:30,10.65,4.52
07/01/2018 01:45,10.51,4.42
07/01/2018 02:00,10.35,4.37
07/01/2018 02:15,10.29,4.35
07/01/2018 02:30,10.07,4.27
07/01/2018 02:45,10.04,4.28
07/01/2018 03:00,9.97,4.32
07/01/2018 03:15,10,4.35
07/01/2018 03:30,9.91,4.26
07/01/2018 03:45,9.73,4.15
07/01/2018 04:00,9.57,4.13
07/01/2018 04:15,9.54,4.19
07/01/2018 04:30,9.56,4.22
07/01/2018 04:45,9.58,4.24
07/01/2018 05:00,9.55,4.24
07/01/2018 05:15,9.44,4.32
07/01/2018 05:30,9.69,4.47
07/01/2018 05:45,9.83,4.64
07/01/2018 06:00,9.98,4.81
07/01/2018 06:15,10.3,5.17
07/01/2018 06:30,10.49,5.28
07/01/2018 06:45,10.61,5.31
07/01/2018 07:00,10.85,5.44
07/01/2018 07:15,10.76,5.42
07/01/2018 07:30,10.91,5.53
07/01/2018 07:45,10.86,5.4
07/01/2018 08:00,10.88,5.31
07/01/2018 08:15,10.24,5.01
07/01/2018 08:30,10.08,4.88
07/01/2018 08:45,9.87,4.62
07/01/2018 09:00,9.81,4.64
07/01/2018 09:15,9.7,4.49
07/01/2018 09:30,9.64,4.39
07/01/2018 09:45,9.56,4.35
07/01/2018 10:00,9.51,4.37
07/01/2018 10:15,9.4,4.29
07/01/2018 10:30,9.33,4.2
07/01/2018 10:45,9.35,4.15
07/01/2018 11:00,9.24,4.19
07/01/2018 11:15,9.39,4.27
07/01/2018 11:30,9.46,4.32
07/01/2018 11:45,9.44,4.29
07/01/2018 12:00,9.3,4.24
07/01/2018 12:15,8.99,4.18
07/01/2018 12:30,8.68,4.13
07/01/2018 12:45,8.28,3.96
07/01/2018 13:00,8.14,3.91
07/01/2018 13:15,8.13,3.92
07/01/2018 13:30,8.07,3.89
07/01/2018 13:45,7.9,3.8
07/01/2018 14:00,7.94,3.81
07/01/2018 14:15,7.88,3.84
07/01/2018 14:30,7.89,3.83
07/01/2018 14:45,7.86,3.76
07/01/2018 15:00,7.85,3.73
07/01/2018 15:15,7.89,3.71
07/01/2018 15:30,8.09,3.85
07/01/2018 15:45,8.18,3.95
07/01/2018 16:00,8.36,4.16
07/01/2018 16:15,8.49,4.32
07/01/2018 16:30,8.73,4.46
07/01/2018 16:45,8.6,4.49
07/01/2018 17:00,8.55,4.62
07/01/2018 17:15,8.71,4.75
07/01/2018 17:30,8.74,4.73
07/01/2018 17:45,8.75,4.67
07/01/2018 18:00,8.36,4.4
07/01/2018 18:15,8.49,4.39
07/01/2018 18:30,8.49,4.34
07/01/2018 18:45,8.17,4.11
07/01/2018 19:00,8.13,4.05
07/01/2018 19:15,8.27,4.04
07/01/2018 19:30,8.81,4.09
07/01/2018 19:45,9.36,4.3
07/01/2018 20:00,9.41,4.32
07/01/2018 20:15,9.47,4.31
07/01/2018 20:30,9.47,4.2
07/01/2018 20:45,9.4,4.09
07/01/2018 21:00,9.44,4.09
07/01/2018 21:15,9.55,4.17
07/01/2018 21:30,9.68,4.19
07/01/2018 21:45,9.76,4.22
07/01/2018 22:00,9.74,4.24
07/01/2018 22:15,9.73,4.22
07/01/2018 22:30,9.78,4.18
07/01/2018 22:45,9.87,4.22
07/01/2018 23:00,9.79,4.13
07/01/2018 23:15,9.99,4.25
07/01/2018 23:30,10.12,4.26
07/01/2018 23:45,10.2,4.22
08/01/2018 00:00,10.35,4.29
08/01/2018 00:15,10.74,4.4
08/01/2018 00:30,11.33,4.62
08/01/2018 00:45,11.34,4.6
08/01/2018 01:00,10.93,4.33
08/01/2018 01:15,10.78,4.32
08/01/2018 01:30,10.75,4.39
08/01/2018 01:45,10.59,4.39
08/01/2018 02:00,10.59,4.36
08/01/2018 02:15,10.51,4.34
08/01/2018 02:30,10.36,4.26
08/01/2018 02:45,10.28,4.28
08/01/2018 03:00,10.18,4.38
08/01/2018 03:15,10.1,4.39
08/01/2018 03:30,10.07,4.39
08/01/2018 03:45,9.94,4.39
08/01/2018 04:00,9.85,4.32
08/01/2018 04:15,9.98,4.53
08/01/2018 04:30,10.16,4.71
08/01/2018 04:45,10.3,4.95
08/01/2018 05:00,10.37,5
08/01/2018 05:15,10.22,5.19
08/01/2018 05:30,10.58,5.42
08/01/2018 05:45,10.81,5.53
08/01/2018 06:00,10.65,5.39
08/01/2018 06:15,11.14,5.81
08/01/2018 06:30,11.22,5.89
08/01/2018 06:45,11.35,6.02
08/01/2018 07:00,11.54,6.16
08/01/2018 07:15,11.66,6.19
08/01/2018 07:30,11.93,6.6
08/01/2018 07:45,11.81,6.36
08/01/2018 08:00,11.55,6.04
08/01/2018 08:15,11.21,5.92
08/01/2018 08:30,10.82,5.59
08/01/2018 08:45,10.4,5.29
08/01/2018 09:00,10.24,5.15
08/01/2018 09:15,10.03,5.05
08/01/2018 09:30,9.73,4.73
08/01/2018 09:45,9.43,4.78
08/01/2018 10:00,9.18,4.68
08/01/2018 10:15,8.68,4.48
08/01/2018 10:30,8.73,4.56
08/01/2018 10:45,8.66,4.54
08/01/2018 11:00,8.34,4.35
08/01/2018 11:15,8.44,4.31
08/01/2018 11:30,8.71,4.42
08/01/2018 11:45,8.72,4.44
08/01/2018 12:00,8.76,4.53
08/01/2018 12:15,7.98,4.36
08/01/2018 12:30,7.57,4.09
08/01/2018 12:45,7.78,4.27
08/01/2018 13:00,7.83,4.24
08/01/2018 13:15,7.96,4.36
08/01/2018 13:30,8.11,4.45
08/01/2018 13:45,8.03,4.35
08/01/2018 14:00,8.06,4.37
08/01/2018 14:15,8.02,4.33
08/01/2018 14:30,7.87,4.18
08/01/2018 14:45,8.11,4.23
08/01/2018 15:00,8.11,4.2
08/01/2018 15:15,8.21,4.34
08/01/2018 15:30,8.48,4.53
08/01/2018 15:45,8.68,4.68
08/01/2018 16:00,8.83,4.96
08/01/2018 16:15,8.87,4.91
08/01/2018 16:30,9.05,5.11
08/01/2018 16:45,9.23,5.23
08/01/2018 17:00,9.79,5.6
08/01/2018 17:15,9.93,5.63
08/01/2018 17:30,9.75,5.45
08/01/2018 17:45,9.75,5.4
08/01/2018 18:00,9.6,5.31
08/01/2018 18:15,9.67,5.34
08/01/2018 18:30,9.44,5.22
08/01/2018 18:45,9.25,4.72
08/01/2018 19:00,9.4,4.85
08/01/2018 19:15,9.26,4.75
08/01/2018 19:30,8.94,4.52
08/01/2018 19:45,8.87,4.42
08/01/2018 20:00,8.96,4.37
08/01/2018 20:15,8.98,4.37
08/01/2018 20:30,8.84,4.44
08/01/2018 20:45,8.64,4.32
08/01/2018 21:00,8.62,4.29
08/01/2018 21:15,8.79,4.3
08/01/2018 21:30,9,4.41
08/01/2018 21:45,9.32,4.51
08/01/2018 22:00,9.15,4.24
08/01/2018 22:15,9.01,4.09
08/01/2018 22:30,9.54,4.44
08/01/2018 22:45,9.76,4.57
08/01/2018 23:00,9.94,4.56
08/01/2018 23:15,9.74,4.37
08/01/2018 23:30,10.23,4.56
08/01/2018 23:45,10.63,4.65
09/01/2018 00:00,10.75,4.71
09/01/2018 00:15,11.41,4.79
09/01/2018 00:30,12.06,4.96
09/01/2018 00:45,12.04,4.99
09/01/2018 01:00,11.57,4.64
09/01/2018 01:15,11.24,4.42
09/01/2018 01:30,11.2,4.28
09/01/2018 01:45,11.03,4.42
09/01/2018 02:00,10.96,4.44
09/01/2018 02:15,10.69,4.29
09/01/2018 02:30,10.52,4.17
09/01/2018 02:45,10.56,4.27
09/01/2018 03:00,10.46,4.26
09/01/2018 03:15,10.47,4.32
09/01/2018 03:30,10.41,4.31
09/01/2018 03:45,10.35,4.46
09/01/2018 04:00,10.63,4.8
09/01/2018 04:15,10.7,4.93
09/01/2018 04:30,10.62,4.89
09/01/2018 04:45,10.63,4.9
09/01/2018 05:00,10.65,4.89
09/01/2018 05:15,10.67,5.12
09/01/2018 05:30,11.15,5.44
09/01/2018 05:45,11.26,5.74
09/01/2018 06:00,11.49,5.91
09/01/2018 06:15,11.62,6
09/01/2018 06:30,11.76,6.18
09/01/2018 06:45,11.85,6.21
09/01/2018 07:00,12.05,6.32
09/01/2018 07:15,12.15,6.73
09/01/2018 07:30,12.44,6.78
09/01/2018 07:45,12.34,6.61
09/01/2018 08:00,11.94,6.37
09/01/2018 08:15,11.39,6.05
09/01/2018 08:30,11.32,6
09/01/2018 08:45,11.1,5.82
09/01/2018 09:00,11.08,5.72
09/01/2018 09:15,11.06,5.63
09/01/2018 09:30,10.7,5.29
09/01/2018 09:45,10.37,5.28
09/01/2018 10:00,10.27,4.98
09/01/2018 10:15,10.04,4.87
09/01/2018 10:30,10.29,5.17
09/01/2018 10:45,10.1,5.16
09/01/2018 11:00,9.94,5.02
09/01/2018 11:15,9.85,4.92
09/01/2018 11:30,9.3,4.55
09/01/2018 11:45,9.16,4.46
09/01/2018 12:00,9.42,4.61
09/01/2018 12:15,9.63,4.77
09/01/2018 12:30,9.78,4.85
09/01/2018 12:45,9.64,4.76
09/01/2018 13:00,9.87,4.96
09/01/2018 13:15,10.18,5.08
09/01/2018 13:30,9.93,4.84
09/01/2018 13:45,9.82,4.79
09/01/2018 14:00,9.95,4.84
09/01/2018 14:15,10,4.97
09/01/2018 14:30,9.89,4.91
09/01/2018 14:45,9.76,4.89
09/01/2018 15:00,9.37,4.66
09/01/2018 15:15,9.77,4.98
09/01/2018 15:30,10.03,5.22
09/01/2018 15:45,9.42,5.11
09/01/2018 16:00,9.54,5.23
09/01/2018 16:15,9.81,5.38
09/01/2018 16:30,9.51,5.24
09/01/2018 16:45,9.87,5.43
09/01/2018 17:00,10.06,5.51
09/01/2018 17:15,10.31,5.7
09/01/2018 17:30,10.21,5.6
09/01/2018 17:45,10.14,5.57
09/01/2018 18:00,10.1,5.49
09/01/2018 18:15,9.78,5.34
09/01/2018 18:30,9.15,5.11
09/01/2018 18:45,8.8,4.68
09/01/2018 19:00,8.67,4.56
09/01/2018 19:15,8.43,4.4
09/01/2018 19:30,8.2,4.23
09/01/2018 19:45,8.28,4.24
09/01/2018 20:00,8.26,4.21
09/01/2018 20:15,8.26,4.28
09/01/2018 20:30,7.76,3.83
09/01/2018 20:45,7.76,3.88
09/01/2018 21:00,8.07,4.11